Starlink 1392

operational
NORAD ID: 45677 Int'l Des: 2020-035 Owner: SPXS Country: US Constellation: starlink
LEOCIRCULARSTARLINK_TYPE

Starlink 1392について

説明を読み込み中...

リアルタイム位置

3D地球を読み込み中...

次回通過

高度履歴

Altitude vs Time

uPlot chart will show altitude changes over time

軌道要素

1 45677U 20035W 25259.02089195 .00002260 00000-0 17049-3 0 9990
2 45677 53.0557 130.7395 0001470 94.4885 265.6272 15.06419075292409
Epoch: Sep 16, 2025 • Age: 12 hours

現在のステータス

高度 550.9 km
速度 7.59 km/s
衛星直下点 -13.26°S, 135.19°E
打ち上げ日 Jun 4, 2020
運用期間 5.2 years
タイプ internet

技術仕様

分類 Payload
質量 260.00 kg
乾燥質量 248.00 kg
総質量 260.00 kg
長さ 0.20 m
直径 2.80 m
スパン 9.00 m
形状 Box + pan
製造者 SPXS
バスタイプ Starlink
フェーズステータス In Orbit
所有者/国 SPXS/US

大規模コンステレーション

Loading constellations...